Location: Mason
(37.5237°N, 89.2543°W)
Time: 07:14:21
(UTC+00:00)

ATLAS CENTAUR R/B - Pass Details

Date: 24 January 2021
Orbit: 475 x 670 km, 64.7° (Epoch: 06 March)

Event Time Altitude Azimuth Distance (km) Brightness Sun altitude
Exits shadow 12:22:11 11° 270° (W) 1,592 3.1 -9.0°
Maximum altitude 12:24:28 17° 311° (NW) 1,256 2.6 -8.6°
Drops below altitude 10° 12:26:59 10° 354° (N) 1,647 3.5 -8.1°
Sets 12:29:40 0° 15° (NNE) 2,533 4.7 -7.6°
